Zurück zum Katalog

COSMOS 1691 DEB

AktivPO
NORAD 19111·DEBRIS·🇷🇺 Russia

Gestartet Oct 9, 1985 von Plesetsk Cosmodrome

Loading…

Nächste Überflüge (nächste 24 Stunden)

TLE

AktuellSource: Space-Track

Epoche: Sep 14, 2026, 10:25 UTC

1 19111U 85094W   26257.43466622  .00000216  00000-0  10308-2 0  9997
2 19111  82.6076 147.5139 0008325 238.8581 297.3909 12.70295993784620

Verfolge COSMOS 1691 DEB in Echtzeit mit AllMySat

Download on the App Store